Regional Weather Roundup
Issued by NWS Charleston, WV

Home | Current Version | Previous Version | Text Only | Print | Product List | Glossary Off
Versions: 1 2 3 4 5 6 7 8 9 10 11 12 13 14 15 16 17 18 19 20 21 22 23 24 25 26 27 28 29 30 31 32 33 34 35 36 37 38 39 40 41 42 43 44 45 46 47 48 49 50

000
ASUS41 KRLX 060110
RWRRLX
West Virginia Regional Weather Roundup
National Weather Service Charleston WV
800 PM EST THU MAR 05 2015

Note: "fair" indicates few or no clouds below 12,000 feet with no
significant weather and/or obstructions to visibility.

WVZ003-060200-
Northern Panhandle of West Virginia

CITY           SKY/WX    TMP DP  RH WIND       PRES   REMARKS
WHEELING       CLEAR     13   0  56 NW7       30.43R WCI   3
$$

WVZ009-060200-
Northwest West Virginia

CITY           SKY/WX    TMP DP  RH WIND       PRES   REMARKS
PARKERSBURG    PTCLDY    16  12  84 CALM      30.50R
$$

WVZ006-060200-
Western West Virginia

CITY           SKY/WX    TMP DP  RH WIND       PRES   REMARKS
HUNTINGTON     CLEAR     17  11  77 N5        30.48R WCI  10
$$

WVZ015-060200-
West Central West Virginia

CITY           SKY/WX    TMP DP  RH WIND       PRES   REMARKS
CHARLESTON     LGT SNOW  20  16  84 NW6       30.46R FOG
$$

WVZ022-031-060200-
North Central West Virginia

CITY           SKY/WX    TMP DP  RH WIND       PRES   REMARKS
CLARKSBURG     NOT AVBL
MORGANTOWN     NOT AVBL
$$

WVZ025-035-042-045-060200-
Southern West Virginia

CITY           SKY/WX    TMP DP  RH WIND       PRES   REMARKS
BECKLEY        CLOUDY    15   9  76 NW13      30.31R WCI   1
LOGAN          LGT SNOW  18  16  93 NW6       30.38R WCI   9
BLUEFIELD      CLOUDY    19  13  77 NW9       30.27R WCI   8
LEWISBURG      CLOUDY    22  15  74 N8        30.27R
$$

WVZ047-060200-
Northern Mountains of West Virginia

CITY           SKY/WX    TMP DP  RH WIND       PRES   REMARKS
ELKINS         LGT SNOW  14   9  80 N7        30.34R WCI   4
$$

WVZ052-060200-
Eastern Panhandle of West Virginia

CITY           SKY/WX    TMP DP  RH WIND       PRES   REMARKS
MARTINSBURG    CLOUDY    23  11  60 NW10      30.36R
PETERSBURG       N/A    N/A N/A N/A MISG        N/A
$$



USA.gov is the U.S. government's official web portal to all federal, state and local government web resources and services.